Location: Byhalia Creek
(34.8270°N, 89.8040°W)
Time: 16:56:50
(UTC+00:00)

H-2A R/B - Pass Details

Date: 22 April 2026
Orbit: 477 x 549 km, 98.3° (Epoch: 8 May)

Event Time Altitude Azimuth Distance (km) Brightness Sun altitude
Exits shadow 10:01:29 11° 304° (NW) 1,654 4.5 -15.6°
Drops below altitude 10° 10:01:36 10° 306° (NW) 1,685 4.5 -15.5°
Sets 10:04:14 0° 327° (NNW) 2,559 5.7 -15.1°
